contact:dominique.lefevre@mio.osupytheas.fr, maurice.libes@osupytheas.fr, didier.mallarino@osupytheas.fr
Project:EMSO http://www.emso-fr.org/EMSO-France
Depth: 2436.0 m
Title:EMSO Ligure Ouest : Data MII capteur AQUADOPP
Date,Latitude,Longitude,X_East,Y_North,Z_Up,Amplitude_X,Amplitude_Y,Amplitude_Z,Batterie,SoundSpeed,Heading,Pitch,Roll,Pressure,TIS,Speed,Direction
, degrees North, degrees East, m.s-1, m.s-1,m.s-1, 1, 1, 1, Volt, m.s-1, degree, degree, degree, dbar, degree_C, m.s-1, degree
2022-12-14T08:46:03,42.805,6.029,-0.013,-0.042,-0.006,103.0,103.0,103.0,13.3,1505.1,327.4,-0.8,1.8,2471.594,13.27,0.043,197.2
2022-12-14T09:04:02,42.805,6.029,-0.001,-0.003,-0.006,102.0,100.0,102.0,13.4,1505.2,328.6,-0.8,1.8,2471.456,13.28,0.003,198.4
2022-12-14T09:13:02,42.805,6.029,0.006,-0.027,0.013,101.0,103.0,102.0,13.3,1505.2,326.0,-0.8,1.8,2471.354,13.28,0.027,167.5
2022-12-14T09:16:03,42.805,6.029,-0.005,-0.006,0.004,101.0,102.0,102.0,13.4,1505.2,329.4,-0.8,1.8,2471.259,13.28,0.007,219.8
2022-12-14T09:19:03,42.805,6.029,-0.04,-0.015,-0.009,100.0,101.0,103.0,13.4,1505.2,328.3,-0.8,1.8,2471.176,13.28,0.042,249.4
2022-12-14T09:22:03,42.805,6.029,-0.022,-0.006,0.0,101.0,103.0,101.0,13.3,1505.2,335.6,-0.8,1.8,2471.155,13.29,0.022,254.7
2022-12-14T09:25:03,42.805,6.029,0.003,-0.016,0.021,102.0,103.0,102.0,13.4,1505.2,334.5,-0.7,1.8,2471.151,13.29,0.016,169.4
2022-12-14T09:28:03,42.805,6.029,-0.023,-0.013,-0.015,103.0,102.0,100.0,13.4,1505.2,320.1,-0.7,1.8,2471.1,13.29,0.026,240.5
2022-12-14T09:31:03,42.805,6.029,0.022,-0.014,0.035,99.0,103.0,103.0,13.3,1505.2,318.4,-0.8,1.8,2471.103,13.29,0.026,122.5
2022-12-14T09:34:03,42.805,6.029,-0.004,-0.016,0.008,100.0,102.0,102.0,13.4,1505.2,329.5,-0.8,1.8,2471.044,13.29,0.016,194.0
2022-12-14T09:37:03,42.805,6.029,0.004,-0.048,-0.028,101.0,103.0,100.0,13.4,1505.2,328.6,-0.7,1.8,2471.084,13.29,0.048,175.2
2022-12-14T09:40:03,42.805,6.029,-0.003,-0.017,0.004,103.0,100.0,102.0,13.4,1505.2,316.9,-0.8,1.8,2471.098,13.29,0.017,190.0
2022-12-14T09:43:03,42.805,6.029,0.002,-0.005,-0.001,101.0,101.0,102.0,13.4,1505.2,324.5,-0.7,1.8,2471.081,13.29,0.005,158.2
2022-12-14T09:46:03,42.805,6.029,0.007,-0.008,0.024,101.0,103.0,101.0,13.4,1505.2,325.1,-0.8,1.8,2471.1,13.29,0.01,138.8
2022-12-14T09:49:03,42.805,6.029,-0.002,-0.017,0.008,101.0,101.0,103.0,13.3,1505.2,335.1,-0.8,1.8,2471.123,13.29,0.017,186.7
2022-12-14T09:52:03,42.805,6.029,-0.026,-0.032,-0.028,101.0,101.0,101.0,13.4,1505.2,321.2,-0.8,1.8,2471.113,13.29,0.041,219.1
2022-12-14T09:55:03,42.805,6.029,-0.014,-0.013,-0.003,102.0,101.0,101.0,13.4,1505.2,327.0,-0.8,1.8,2471.141,13.29,0.019,227.1
2022-12-14T09:58:03,42.805,6.029,-0.013,-0.014,0.0,101.0,104.0,103.0,13.4,1505.2,328.6,-0.7,1.8,2471.141,13.29,0.019,222.9
2022-12-14T10:04:03,42.805,6.029,0.008,-0.029,-0.009,101.0,102.0,101.0,13.4,1505.2,317.4,-0.8,1.8,2471.182,13.29,0.03,164.6
2022-12-14T10:07:03,42.805,6.029,0.005,-0.007,0.006,102.0,102.0,101.0,13.4,1505.2,320.6,-0.7,1.8,2471.186,13.29,0.008,144.5
2022-12-14T10:10:03,42.805,6.029,-0.009,-0.004,0.013,101.0,104.0,102.0,13.3,1505.2,324.5,-0.8,1.8,2471.213,13.29,0.009,246.0
2022-12-14T10:13:03,42.805,6.029,-0.002,-0.013,0.029,101.0,102.0,102.0,13.4,1505.2,334.9,-0.8,1.9,2471.171,13.29,0.013,188.7
2022-12-14T10:16:03,42.805,6.029,-0.019,-0.012,-0.008,103.0,103.0,102.0,13.4,1505.2,317.5,-0.8,1.8,2471.176,13.29,0.022,237.7
2022-12-14T10:19:03,42.805,6.029,-0.019,-0.004,0.008,102.0,101.0,101.0,13.4,1505.2,327.9,-0.7,1.9,2471.181,13.29,0.019,258.1
2022-12-14T10:22:03,42.805,6.029,-0.009,-0.023,-0.016,101.0,104.0,102.0,13.4,1505.2,322.5,-0.7,1.8,2471.152,13.29,0.024,201.4
2022-12-14T10:25:03,42.805,6.029,0.002,-0.021,0.002,103.0,102.0,101.0,13.4,1505.2,319.2,-0.8,1.8,2471.146,13.29,0.021,174.6
2022-12-14T10:28:03,42.805,6.029,-0.033,0.0,0.003,102.0,102.0,102.0,13.3,1505.2,329.0,-0.7,1.8,2471.179,13.29,0.033,270.0
2022-12-14T10:31:03,42.805,6.029,-0.03,-0.01,0.0,101.0,102.0,104.0,13.4,1505.2,331.5,-0.8,1.8,2471.176,13.29,0.031,251.6
2022-12-14T10:34:03,42.805,6.029,-0.015,-0.014,0.016,102.0,99.0,101.0,13.4,1505.2,323.9,-0.8,1.8,2471.121,13.29,0.02,227.0
2022-12-14T10:37:03,42.805,6.029,-0.023,-0.033,-0.014,102.0,101.0,101.0,13.3,1505.2,322.1,-0.7,1.8,2471.147,13.29,0.04,214.9
2022-12-14T10:40:03,42.805,6.029,0.009,-0.03,0.0,101.0,104.0,101.0,13.4,1505.2,321.2,-0.8,1.8,2471.238,13.29,0.031,163.3
2022-12-14T10:43:03,42.805,6.029,0.002,-0.015,0.012,101.0,102.0,101.0,13.4,1505.2,324.0,-0.8,1.8,2471.196,13.29,0.015,172.4
2022-12-14T10:46:03,42.805,6.029,-0.001,-0.014,0.005,102.0,102.0,102.0,13.4,1505.2,326.7,-0.7,1.8,2471.185,13.29,0.014,184.1
2022-12-14T10:49:03,42.805,6.029,-0.01,0.0,0.001,102.0,103.0,101.0,13.4,1505.2,326.7,-0.7,1.8,2471.185,13.29,0.01,270.0
2022-12-14T10:52:03,42.805,6.029,-0.016,-0.013,0.005,101.0,102.0,102.0,13.4,1505.2,330.4,-0.8,1.8,2471.157,13.29,0.02,230.9
2022-12-14T10:55:03,42.805,6.029,0.017,-0.024,0.018,103.0,102.0,101.0,13.4,1505.2,330.8,-0.7,1.8,2471.192,13.29,0.029,144.7
2022-12-14T10:58:03,42.805,6.029,0.0,-0.029,0.0,102.0,102.0,102.0,13.3,1505.2,321.3,-0.8,1.8,2471.185,13.29,0.028,180.0
2022-12-14T11:04:03,42.805,6.029,0.0,-0.006,0.033,102.0,102.0,101.0,13.4,1505.2,325.7,-0.7,1.8,2471.236,13.28,0.006,180.0
2022-12-14T11:07:03,42.805,6.029,0.013,-0.015,-0.006,102.0,102.0,102.0,13.3,1505.2,321.8,-0.7,1.8,2471.249,13.29,0.019,139.1
2022-12-14T11:10:03,42.805,6.029,-0.014,0.004,0.025,103.0,103.0,101.0,13.4,1505.2,318.5,-0.8,1.9,2471.204,13.29,0.014,285.9
2022-12-14T11:13:03,42.805,6.029,0.005,-0.008,0.019,101.0,101.0,102.0,13.4,1505.2,333.1,-0.8,1.8,2471.194,13.29,0.009,148.0
2022-12-14T11:16:03,42.805,6.029,-0.013,-0.002,0.022,101.0,102.0,101.0,13.4,1505.2,331.0,-0.8,1.8,2471.194,13.29,0.013,261.3
2022-12-14T11:19:03,42.805,6.029,0.008,0.008,0.027,103.0,102.0,101.0,13.4,1505.2,329.7,-0.7,1.8,2471.225,13.29,0.011,45.0
2022-12-14T11:22:03,42.805,6.029,0.003,-0.004,0.013,102.0,103.0,102.0,13.4,1505.2,332.1,-0.8,1.8,2471.178,13.29,0.005,143.1
2022-12-14T11:25:03,42.805,6.029,0.018,-0.015,0.02,102.0,101.0,102.0,13.4,1505.2,317.4,-0.8,1.8,2471.189,13.29,0.023,129.8
2022-12-14T11:28:03,42.805,6.029,0.007,-0.01,-0.003,102.0,101.0,101.0,13.3,1505.2,329.8,-0.8,1.8,2471.181,13.29,0.012,145.0
2022-12-14T11:31:03,42.805,6.029,0.009,0.004,0.015,100.0,102.0,102.0,13.4,1505.2,337.4,-0.8,1.8,2471.17,13.29,0.009,66.0
2022-12-14T11:34:03,42.805,6.029,0.005,0.006,0.055,101.0,101.0,101.0,13.4,1505.2,326.7,-0.8,1.8,2471.217,13.29,0.007,39.8
2022-12-14T11:37:03,42.805,6.029,0.013,-0.004,-0.012,100.0,103.0,101.0,13.4,1505.2,328.1,-0.7,1.8,2471.2,13.29,0.013,107.1
2022-12-14T11:40:03,42.805,6.029,0.005,0.002,0.029,102.0,100.0,101.0,13.4,1505.2,323.9,-0.8,1.8,2471.197,13.29,0.005,68.2
2022-12-14T11:43:03,42.805,6.029,-0.009,0.0,0.012,101.0,103.0,102.0,13.4,1505.2,332.0,-0.8,1.8,2471.177,13.29,0.009,270.0
2022-12-14T11:46:03,42.805,6.029,0.011,-0.025,0.024,103.0,102.0,101.0,13.3,1505.2,328.6,-0.7,1.8,2471.178,13.29,0.027,156.3
2022-12-14T11:49:03,42.805,6.029,0.0,0.002,0.004,100.0,103.0,102.0,13.4,1505.2,325.1,-0.8,1.8,2471.209,13.29,0.002,0.0
2022-12-14T11:52:03,42.805,6.029,-0.008,-0.033,-0.001,103.0,101.0,101.0,13.4,1505.2,328.2,-0.8,1.8,2471.193,13.29,0.033,193.6
2022-12-14T11:55:03,42.805,6.029,-0.026,-0.01,-0.031,102.0,102.0,101.0,13.3,1505.2,331.2,-0.8,1.8,2471.175,13.29,0.027,249.0
2022-12-14T11:58:03,42.805,6.029,-0.007,-0.003,-0.011,103.0,102.0,102.0,13.4,1505.2,327.8,-0.8,1.8,2471.185,13.29,0.007,246.8
2022-12-14T12:04:03,42.805,6.029,-0.01,0.001,0.022,102.0,102.0,101.0,13.4,1505.2,323.5,-0.8,1.8,2471.211,13.28,0.01,275.7
2022-12-14T12:07:03,42.805,6.029,-0.007,-0.016,-0.006,100.0,103.0,102.0,13.3,1505.2,321.8,-0.7,1.8,2471.234,13.28,0.017,203.6
2022-12-14T12:10:03,42.805,6.029,0.006,-0.027,0.003,101.0,102.0,101.0,13.4,1505.2,333.4,-0.8,1.8,2471.239,13.29,0.027,167.5
2022-12-14T12:13:03,42.805,6.029,0.012,-0.003,0.014,103.0,103.0,102.0,13.4,1505.2,320.6,-0.8,1.8,2471.185,13.29,0.012,104.0
2022-12-14T12:16:03,42.805,6.029,0.018,-0.037,0.005,102.0,102.0,102.0,13.3,1505.2,330.0,-0.7,1.8,2471.185,13.29,0.041,154.1
2022-12-14T12:19:03,42.805,6.029,0.006,-0.016,0.026,102.0,103.0,100.0,13.4,1505.2,334.1,-0.7,1.8,2471.209,13.29,0.017,159.4
2022-12-14T12:22:03,42.805,6.029,-0.002,-0.017,0.026,101.0,102.0,101.0,13.4,1505.2,331.2,-0.8,1.8,2471.169,13.29,0.017,186.7
2022-12-14T12:25:03,42.805,6.029,0.03,-0.023,0.024,100.0,101.0,103.0,13.4,1505.2,335.5,-0.8,1.8,2471.159,13.29,0.037,127.5
2022-12-14T12:28:03,42.805,6.029,0.011,-0.018,-0.023,102.0,102.0,102.0,13.3,1505.2,318.0,-0.8,1.8,2471.178,13.29,0.021,148.6
2022-12-14T12:31:03,42.805,6.029,0.001,-0.007,-0.007,104.0,102.0,102.0,13.4,1505.2,321.6,-0.8,1.8,2471.183,13.29,0.007,171.9
2022-12-14T12:34:03,42.805,6.029,0.008,-0.01,0.01,103.0,101.0,102.0,13.4,1505.2,327.6,-0.7,1.8,2471.166,13.29,0.012,141.3
2022-12-14T12:37:03,42.805,6.029,-0.022,-0.023,0.024,102.0,101.0,101.0,13.4,1505.2,326.1,-0.8,1.8,2471.167,13.29,0.031,223.7
2022-12-14T12:40:03,42.805,6.029,0.001,-0.001,0.027,102.0,103.0,102.0,13.4,1505.2,333.0,-0.8,1.8,2471.183,13.29,0.001,135.0
2022-12-14T12:43:03,42.805,6.029,0.009,-0.016,0.024,102.0,103.0,101.0,13.3,1505.2,335.3,-0.7,1.8,2471.177,13.29,0.018,150.6
2022-12-14T12:46:03,42.805,6.029,0.026,-0.029,0.034,102.0,102.0,101.0,13.3,1505.2,320.1,-0.8,1.8,2471.137,13.29,0.038,138.1
2022-12-14T12:49:03,42.805,6.029,-0.008,-0.014,0.004,102.0,103.0,102.0,13.4,1505.2,335.8,-0.8,1.8,2471.177,13.29,0.016,209.7
2022-12-14T12:52:03,42.805,6.029,-0.01,-0.006,0.027,102.0,102.0,102.0,13.4,1505.2,327.4,-0.7,1.8,2471.162,13.29,0.011,239.0
2022-12-14T12:55:03,42.805,6.029,-0.022,-0.018,0.007,102.0,102.0,101.0,13.4,1505.2,336.5,-0.8,1.8,2471.179,13.29,0.028,230.7
2022-12-14T12:58:03,42.805,6.029,-0.002,-0.023,0.011,101.0,102.0,102.0,13.4,1505.2,326.0,-0.8,1.8,2471.172,13.29,0.023,185.0
2022-12-14T13:04:03,42.805,6.029,-0.026,-0.009,0.004,102.0,101.0,101.0,13.4,1505.2,329.7,-0.8,1.8,2471.199,13.28,0.027,250.9
2022-12-14T13:07:03,42.805,6.029,0.002,-0.013,0.011,101.0,101.0,101.0,13.3,1505.2,332.2,-0.8,1.8,2471.184,13.28,0.013,171.3
2022-12-14T13:10:03,42.805,6.029,-0.001,-0.004,0.024,101.0,101.0,101.0,13.4,1505.2,319.8,-0.7,1.8,2471.174,13.29,0.004,194.0
2022-12-14T13:13:03,42.805,6.029,-0.002,-0.01,0.027,103.0,101.0,101.0,13.4,1505.2,324.7,-0.7,1.8,2471.153,13.29,0.01,191.3
2022-12-14T13:16:03,42.805,6.029,-0.01,-0.017,-0.006,101.0,101.0,101.0,13.4,1505.2,327.3,-0.8,1.8,2471.139,13.29,0.019,210.5
2022-12-14T13:19:03,42.805,6.029,0.001,-0.028,0.0,101.0,101.0,100.0,13.4,1505.2,324.9,-0.8,1.8,2471.155,13.29,0.028,178.0
2022-12-14T13:22:03,42.805,6.029,0.014,-0.02,-0.01,101.0,104.0,101.0,13.4,1505.2,322.6,-0.7,1.8,2471.132,13.29,0.024,145.0
2022-12-14T13:25:03,42.805,6.029,-0.004,-0.01,0.025,101.0,101.0,102.0,13.4,1505.2,318.8,-0.8,1.8,2471.211,13.29,0.01,201.8
2022-12-14T13:28:03,42.805,6.029,-0.005,-0.012,0.017,102.0,102.0,101.0,13.4,1505.2,324.5,-0.8,1.8,2471.169,13.29,0.013,202.6
2022-12-14T13:31:03,42.805,6.029,-0.003,-0.017,0.012,103.0,101.0,101.0,13.4,1505.2,320.9,-0.8,1.8,2471.155,13.29,0.017,190.0
2022-12-14T13:34:03,42.805,6.029,0.008,-0.017,0.019,102.0,102.0,102.0,13.3,1505.2,324.2,-0.8,1.8,2471.18,13.29,0.018,154.8
2022-12-14T13:37:03,42.805,6.029,0.025,-0.018,-0.028,102.0,102.0,101.0,13.4,1505.2,327.0,-0.8,1.8,2471.152,13.29,0.03,125.8
2022-12-14T13:40:03,42.805,6.029,0.022,-0.01,0.034,101.0,102.0,102.0,13.3,1505.2,318.8,-0.8,1.8,2471.116,13.29,0.024,114.4
2022-12-14T13:43:03,42.805,6.029,0.002,-0.016,0.007,103.0,100.0,102.0,13.3,1505.2,334.9,-0.7,1.8,2471.116,13.29,0.016,172.9
2022-12-14T13:46:03,42.805,6.029,-0.024,0.027,0.036,102.0,102.0,102.0,13.4,1505.2,322.9,-0.8,1.8,2471.153,13.29,0.036,318.4
2022-12-14T13:49:03,42.805,6.029,-0.004,-0.02,-0.015,101.0,103.0,102.0,13.4,1505.2,326.7,-0.8,1.8,2471.173,13.29,0.02,191.3
2022-12-14T13:52:03,42.805,6.029,-0.001,-0.009,0.011,102.0,101.0,100.0,13.4,1505.2,321.0,-0.7,1.8,2471.106,13.29,0.009,186.3
2022-12-14T13:55:03,42.805,6.029,0.032,-0.001,0.048,102.0,102.0,101.0,13.4,1505.2,321.5,-0.8,1.8,2471.149,13.29,0.032,91.8
2022-12-14T13:58:03,42.805,6.029,0.0,0.0,-0.001,102.0,101.0,103.0,13.3,1505.2,335.9,-0.8,1.8,2471.157,13.29,0.0,0.0
2022-12-14T14:04:03,42.805,6.029,-0.003,-0.033,-0.009,101.0,103.0,101.0,13.4,1505.2,323.9,-0.8,1.8,2471.204,13.28,0.033,185.2
2022-12-14T14:07:03,42.805,6.029,0.003,-0.007,-0.03,102.0,103.0,101.0,13.4,1505.2,317.5,-0.7,1.8,2471.202,13.28,0.007,156.8
2022-12-14T14:10:03,42.805,6.029,0.027,-0.025,0.046,102.0,103.0,101.0,13.3,1505.2,337.3,-0.7,1.8,2471.176,13.28,0.036,132.8
2022-12-14T14:13:03,42.805,6.029,0.019,0.0,-0.004,104.0,101.0,101.0,13.4,1505.2,323.6,-0.7,1.8,2471.154,13.28,0.019,90.0
2022-12-14T14:16:03,42.805,6.029,0.01,-0.011,-0.007,101.0,102.0,102.0,13.3,1505.2,335.8,-0.7,1.8,2471.169,13.29,0.014,137.7
2022-12-14T14:19:03,42.805,6.029,-0.003,-0.011,0.009,102.0,103.0,101.0,13.4,1505.2,323.7,-0.8,1.8,2471.161,13.29,0.011,195.3
2022-12-14T14:22:03,42.805,6.029,0.012,-0.02,0.017,103.0,102.0,102.0,13.4,1505.2,320.4,-0.8,1.8,2471.152,13.29,0.023,149.0
2022-12-14T14:25:03,42.805,6.029,0.013,-0.031,0.006,101.0,102.0,102.0,13.3,1505.2,335.6,-0.8,1.8,2471.129,13.29,0.033,157.3
2022-12-14T14:28:03,42.805,6.029,0.012,0.002,0.019,103.0,102.0,102.0,13.4,1505.2,320.6,-0.8,1.8,2471.138,13.29,0.012,80.5
2022-12-14T14:31:03,42.805,6.029,0.023,-0.02,0.002,103.0,102.0,102.0,13.3,1505.2,321.6,-0.7,1.8,2471.139,13.29,0.03,131.0
2022-12-14T14:34:03,42.805,6.029,0.023,-0.004,0.013,103.0,102.0,101.0,13.4,1505.2,327.6,-0.7,1.8,2471.183,13.29,0.023,99.9
2022-12-14T14:37:03,42.805,6.029,0.032,-0.007,0.024,103.0,103.0,102.0,13.4,1505.2,327.2,-0.8,1.8,2471.132,13.29,0.032,102.3
2022-12-14T14:40:03,42.805,6.029,0.011,-0.009,0.03,102.0,103.0,102.0,13.3,1505.2,327.4,-0.7,1.8,2471.152,13.29,0.014,129.3
2022-12-14T14:43:03,42.805,6.029,0.022,-0.015,0.011,102.0,103.0,102.0,13.3,1505.2,315.9,-0.8,1.8,2471.118,13.29,0.026,124.3
2022-12-14T14:46:03,42.805,6.029,0.043,-0.022,0.038,103.0,104.0,101.0,13.4,1505.2,328.6,-0.8,1.8,2471.142,13.29,0.048,117.1
2022-12-14T14:49:03,42.805,6.029,0.019,-0.017,0.009,103.0,101.0,103.0,13.3,1505.2,333.0,-0.8,1.8,2471.134,13.29,0.025,131.8
2022-12-14T14:52:03,42.805,6.029,0.011,-0.017,-0.013,103.0,104.0,103.0,13.4,1505.2,318.1,-0.7,1.9,2471.144,13.29,0.02,147.1
2022-12-14T14:55:03,42.805,6.029,0.005,-0.01,0.023,102.0,103.0,103.0,13.4,1505.2,324.1,-0.8,1.8,2471.128,13.29,0.011,153.4
2022-12-14T14:58:03,42.805,6.029,0.01,-0.01,0.017,103.0,103.0,102.0,13.3,1505.2,323.5,-0.7,1.8,2471.116,13.29,0.014,135.0
2022-12-14T15:04:03,42.805,6.029,0.009,-0.037,0.0,102.0,105.0,101.0,13.4,1505.2,330.9,-0.7,1.8,2471.182,13.28,0.038,166.3
2022-12-14T15:07:03,42.805,6.029,-0.001,-0.019,-0.02,102.0,103.0,102.0,13.4,1505.2,327.4,-0.8,1.8,2471.151,13.28,0.019,183.0
2022-12-14T15:10:03,42.805,6.029,0.007,-0.036,0.031,103.0,103.0,102.0,13.4,1505.2,335.1,-0.8,1.8,2471.13,13.28,0.036,169.0
2022-12-14T15:13:03,42.805,6.029,0.033,-0.028,0.005,103.0,102.0,102.0,13.3,1505.2,333.7,-0.8,1.8,2471.155,13.28,0.043,130.3
2022-12-14T15:16:03,42.805,6.029,0.003,-0.021,-0.005,103.0,105.0,101.0,13.3,1505.2,325.4,-0.8,1.8,2471.139,13.29,0.021,171.9
2022-12-14T15:19:03,42.805,6.029,-0.008,-0.007,0.018,102.0,103.0,102.0,13.4,1505.2,337.1,-0.8,1.8,2471.123,13.29,0.01,228.8
2022-12-14T15:22:03,42.805,6.029,0.004,-0.004,0.022,103.0,103.0,101.0,13.3,1505.2,319.3,-0.7,1.8,2471.134,13.29,0.005,135.0
2022-12-14T15:25:03,42.805,6.029,-0.003,-0.008,0.003,104.0,103.0,102.0,13.4,1505.2,323.1,-0.8,1.8,2471.118,13.29,0.008,200.6
2022-12-14T15:28:03,42.805,6.029,0.026,-0.023,0.001,105.0,105.0,101.0,13.3,1505.2,335.2,-0.8,1.8,2471.099,13.29,0.034,131.5
2022-12-14T15:31:03,42.805,6.029,0.014,-0.014,0.007,105.0,102.0,101.0,13.4,1505.2,323.2,-0.7,1.8,2471.11,13.29,0.019,135.0
2022-12-14T15:34:03,42.805,6.029,0.013,-0.013,0.054,102.0,103.0,102.0,13.4,1505.2,322.5,-0.8,1.8,2471.091,13.29,0.018,135.0
2022-12-14T15:37:03,42.805,6.029,0.007,-0.03,-0.042,103.0,103.0,103.0,13.4,1505.2,322.2,-0.7,1.8,2471.079,13.29,0.03,166.9
2022-12-14T15:40:03,42.805,6.029,0.035,-0.034,0.008,104.0,103.0,102.0,13.4,1505.2,320.7,-0.8,1.8,2471.144,13.29,0.048,134.2
2022-12-14T15:43:03,42.805,6.029,0.01,-0.039,-0.008,102.0,102.0,103.0,13.4,1505.2,334.9,-0.7,1.9,2471.093,13.29,0.04,165.6
2022-12-14T15:46:03,42.805,6.029,0.003,-0.032,-0.002,103.0,103.0,100.0,13.4,1505.2,318.1,-0.8,1.8,2471.152,13.29,0.032,174.6
2022-12-14T15:49:03,42.805,6.029,0.006,-0.022,-0.001,102.0,103.0,102.0,13.4,1505.2,336.3,-0.8,1.8,2471.1,13.29,0.022,164.7
2022-12-14T15:52:03,42.805,6.029,-0.001,-0.03,-0.02,103.0,104.0,102.0,13.4,1505.2,319.0,-0.8,1.8,2471.064,13.29,0.03,181.9
2022-12-14T15:55:03,42.805,6.029,-0.001,-0.024,0.006,102.0,103.0,102.0,13.4,1505.2,335.4,-0.8,1.9,2471.139,13.29,0.024,182.4
2022-12-14T15:58:03,42.805,6.029,0.0,-0.017,0.029,103.0,102.0,101.0,13.4,1505.2,328.5,-0.8,1.8,2471.053,13.29,0.017,180.0
2022-12-14T16:04:03,42.805,6.029,-0.01,-0.03,0.011,106.0,103.0,102.0,13.4,1505.2,331.9,-0.8,1.8,2471.112,13.28,0.031,198.4
2022-12-14T16:07:03,42.805,6.029,0.002,-0.012,-0.007,104.0,102.0,102.0,13.4,1505.2,336.4,-0.8,1.8,2471.127,13.28,0.012,170.5
2022-12-14T16:10:03,42.805,6.029,0.004,-0.023,0.016,104.0,104.0,102.0,13.4,1505.2,327.4,-0.8,1.8,2471.092,13.28,0.023,170.1
2022-12-14T16:13:03,42.805,6.029,-0.003,-0.012,-0.018,103.0,104.0,102.0,13.4,1505.2,328.4,-0.8,1.8,2471.071,13.28,0.012,194.0
2022-12-14T16:16:03,42.805,6.029,0.008,-0.013,0.012,103.0,104.0,102.0,13.4,1505.2,322.2,-0.7,1.8,2471.08,13.29,0.015,148.4
2022-12-14T16:19:03,42.805,6.029,0.018,-0.021,0.025,102.0,104.0,102.0,13.4,1505.2,321.9,-0.8,1.8,2471.074,13.29,0.027,139.4
2022-12-14T16:22:03,42.805,6.029,0.0,-0.028,-0.01,103.0,104.0,102.0,13.4,1505.2,331.9,-0.7,1.8,2471.075,13.29,0.028,180.0
2022-12-14T16:25:03,42.805,6.029,0.01,-0.029,0.006,100.0,102.0,103.0,13.3,1505.2,317.4,-0.7,1.8,2471.065,13.29,0.03,161.0
2022-12-14T16:28:03,42.805,6.029,0.012,-0.006,0.04,102.0,103.0,102.0,13.3,1505.2,323.2,-0.7,1.8,2471.052,13.29,0.013,116.6
2022-12-14T16:31:03,42.805,6.029,-0.003,-0.035,0.005,102.0,103.0,102.0,13.3,1505.2,335.3,-0.7,1.8,2471.07,13.29,0.035,184.9
2022-12-14T16:34:03,42.805,6.029,0.001,-0.025,0.009,104.0,104.0,102.0,13.4,1505.2,324.1,-0.7,1.8,2471.02,13.29,0.025,177.7
2022-12-14T16:37:03,42.805,6.029,0.016,-0.009,0.0,103.0,103.0,102.0,13.4,1505.2,319.4,-0.8,1.8,2471.054,13.29,0.018,119.4
2022-12-14T16:40:03,42.805,6.029,0.005,-0.044,-0.007,102.0,104.0,101.0,13.4,1505.2,333.0,-0.8,1.8,2471.067,13.29,0.044,173.5
2022-12-14T16:43:03,42.805,6.029,0.01,-0.008,0.05,104.0,103.0,101.0,13.4,1505.2,327.4,-0.7,1.8,2471.088,13.29,0.012,128.7
2022-12-14T16:46:03,42.805,6.029,-0.006,-0.029,0.004,104.0,101.0,102.0,13.4,1505.2,327.9,-0.8,1.8,2471.055,13.29,0.029,191.7
2022-12-14T16:49:03,42.805,6.029,0.01,-0.001,0.033,103.0,101.0,101.0,13.4,1505.2,331.1,-0.8,1.8,2471.046,13.29,0.01,95.7
2022-12-14T16:52:03,42.805,6.029,0.023,-0.008,0.034,103.0,103.0,102.0,13.4,1505.2,320.2,-0.8,1.8,2471.085,13.29,0.024,109.2
2022-12-14T16:55:03,42.805,6.029,0.022,-0.034,0.028,103.0,104.0,102.0,13.3,1505.2,327.9,-0.8,1.8,2471.052,13.29,0.04,147.1
2022-12-14T16:58:03,42.805,6.029,0.01,-0.025,0.017,103.0,101.0,103.0,13.4,1505.2,326.5,-0.7,1.8,2471.04,13.29,0.026,158.2
2022-12-14T17:04:03,42.805,6.029,0.014,-0.029,0.0,103.0,104.0,102.0,13.4,1505.2,323.2,-0.8,1.8,2471.097,13.28,0.032,154.2
2022-12-14T17:07:03,42.805,6.029,0.01,-0.023,0.004,102.0,103.0,102.0,13.4,1505.2,322.4,-0.8,1.8,2471.056,13.28,0.025,156.5
2022-12-14T17:10:03,42.805,6.029,0.013,-0.036,-0.034,103.0,102.0,102.0,13.4,1505.2,331.0,-0.7,1.8,2471.113,13.28,0.038,160.1
2022-12-14T17:13:03,42.805,6.029,0.002,-0.036,0.012,103.0,102.0,102.0,13.4,1505.2,335.6,-0.7,1.8,2471.077,13.29,0.036,176.8
2022-12-14T17:16:03,42.805,6.029,0.017,-0.027,-0.015,103.0,103.0,101.0,13.4,1505.2,317.4,-0.7,1.8,2471.103,13.29,0.031,147.8
2022-12-14T17:19:03,42.805,6.029,-0.001,-0.009,0.009,102.0,101.0,102.0,13.4,1505.2,329.7,-0.8,1.8,2471.049,13.29,0.009,186.3
2022-12-14T17:22:03,42.805,6.029,0.001,-0.017,0.015,103.0,102.0,101.0,13.4,1505.2,325.7,-0.8,1.8,2471.057,13.29,0.017,176.6
2022-12-14T17:25:03,42.805,6.029,0.011,-0.034,-0.017,103.0,102.0,103.0,13.4,1505.2,321.5,-0.7,1.8,2471.071,13.29,0.035,162.1
2022-12-14T17:28:03,42.805,6.029,-0.002,-0.035,-0.019,103.0,104.0,101.0,13.4,1505.2,326.5,-0.8,1.8,2471.096,13.29,0.035,183.3
2022-12-14T17:31:03,42.805,6.029,0.016,-0.04,-0.003,102.0,103.0,102.0,13.3,1505.2,331.5,-0.8,1.8,2471.074,13.29,0.043,158.2
2022-12-14T17:34:03,42.805,6.029,0.015,-0.02,0.001,100.0,102.0,102.0,13.4,1505.2,329.7,-0.7,1.8,2471.099,13.29,0.025,143.1
2022-12-14T17:37:03,42.805,6.029,0.006,-0.016,-0.004,102.0,102.0,101.0,13.4,1505.2,325.5,-0.7,1.8,2471.066,13.29,0.017,159.4
2022-12-14T17:40:03,42.805,6.029,0.005,-0.039,0.004,102.0,102.0,101.0,13.4,1505.2,320.7,-0.8,1.8,2471.059,13.29,0.039,172.7
2022-12-14T17:43:03,42.805,6.029,0.015,-0.026,0.003,101.0,102.0,102.0,13.3,1505.2,321.6,-0.8,1.8,2471.039,13.29,0.03,150.0
2022-12-14T17:46:03,42.805,6.029,-0.017,-0.031,0.003,103.0,102.0,101.0,13.4,1505.2,330.7,-0.8,1.8,2471.086,13.29,0.035,208.7
2022-12-14T17:49:03,42.805,6.029,0.01,-0.037,0.006,101.0,102.0,102.0,13.4,1505.2,319.0,-0.8,1.8,2471.059,13.29,0.038,164.9
2022-12-14T17:52:03,42.805,6.029,0.015,-0.047,-0.006,103.0,102.0,101.0,13.3,1505.2,327.0,-0.7,1.8,2471.084,13.29,0.049,162.3
2022-12-14T17:55:03,42.805,6.029,-0.035,-0.034,-0.011,103.0,101.0,101.0,13.3,1505.2,327.3,-0.8,1.8,2471.058,13.29,0.048,225.8
2022-12-14T17:58:03,42.805,6.029,-0.006,-0.015,0.018,102.0,102.0,101.0,13.4,1505.2,332.0,-0.8,1.8,2471.065,13.29,0.016,201.8
2022-12-14T18:04:03,42.805,6.029,-0.015,-0.04,-0.004,101.0,101.0,101.0,13.3,1505.2,330.1,-0.8,1.8,2471.071,13.28,0.042,200.6
2022-12-14T18:07:03,42.805,6.029,0.006,-0.03,0.015,101.0,102.0,102.0,13.3,1505.2,324.0,-0.8,1.8,2471.109,13.28,0.03,168.7
2022-12-14T18:10:03,42.805,6.029,-0.018,-0.021,-0.023,101.0,101.0,101.0,13.4,1505.2,321.9,-0.8,1.8,2471.067,13.28,0.027,220.6
2022-12-14T18:13:03,42.805,6.029,-0.018,-0.04,-0.022,101.0,101.0,101.0,13.4,1505.2,333.8,-0.7,1.8,2471.111,13.29,0.043,204.2
2022-12-14T18:16:03,42.805,6.029,0.017,-0.015,0.029,102.0,102.0,101.0,13.3,1505.2,320.7,-0.7,1.8,2471.064,13.29,0.022,131.4
2022-12-14T18:19:03,42.805,6.029,0.007,-0.029,0.022,102.0,101.0,101.0,13.4,1505.2,327.9,-0.7,1.8,2471.058,13.29,0.029,166.4
2022-12-14T18:22:03,42.805,6.029,0.0,-0.03,0.011,105.0,101.0,101.0,13.4,1505.2,323.1,-0.8,1.8,2471.019,13.29,0.03,180.0
2022-12-14T18:25:03,42.805,6.029,-0.02,-0.026,-0.016,101.0,102.0,101.0,13.4,1505.2,332.3,-0.7,1.8,2471.112,13.29,0.032,217.6
2022-12-14T18:28:03,42.805,6.029,-0.011,-0.023,0.001,101.0,101.0,101.0,13.3,1505.2,319.2,-0.8,1.8,2471.064,13.29,0.025,205.6
2022-12-14T18:31:03,42.805,6.029,-0.003,-0.019,0.03,99.0,100.0,102.0,13.4,1505.2,325.1,-0.7,1.8,2471.028,13.29,0.019,189.0
2022-12-14T18:34:03,42.805,6.029,-0.017,-0.038,-0.041,102.0,100.0,102.0,13.4,1505.2,334.2,-0.8,1.8,2471.062,13.29,0.041,204.1
2022-12-14T18:37:03,42.805,6.029,0.012,-0.026,0.016,102.0,102.0,100.0,13.4,1505.2,331.5,-0.8,1.8,2471.024,13.29,0.028,155.2
2022-12-14T18:40:03,42.805,6.029,-0.012,-0.024,-0.009,100.0,101.0,101.0,13.4,1505.2,335.1,-0.8,1.9,2471.103,13.29,0.026,206.6
2022-12-14T18:43:03,42.805,6.029,0.012,-0.019,0.025,100.0,103.0,102.0,13.3,1505.2,321.6,-0.7,1.9,2471.084,13.29,0.022,147.7
2022-12-14T18:46:03,42.805,6.029,-0.003,-0.025,0.001,101.0,101.0,102.0,13.4,1505.2,318.8,-0.8,1.8,2471.047,13.29,0.025,186.8
2022-12-14T18:49:03,42.805,6.029,0.006,-0.023,0.003,101.0,101.0,101.0,13.4,1505.2,329.7,-0.8,1.8,2471.047,13.29,0.023,165.4
2022-12-14T18:52:03,42.805,6.029,0.005,-0.033,0.028,102.0,101.0,101.0,13.4,1505.2,325.0,-0.7,1.8,2471.065,13.29,0.033,171.4
2022-12-14T18:55:03,42.805,6.029,-0.015,-0.018,-0.013,102.0,102.0,101.0,13.4,1505.2,323.7,-0.8,1.8,2471.027,13.29,0.023,219.8
2022-12-14T18:58:03,42.805,6.029,0.013,-0.023,0.006,102.0,101.0,101.0,13.3,1505.2,329.3,-0.8,1.8,2471.054,13.29,0.026,150.5